SCP
0 0 0 0 0 0 0 0 0 0 0 0 0 0 0 0 0 0 0 0 0 0 0 0 1 1 1 1 1 2 2 2 1 1 1 0 0 0 0 0 0 0 0 0
0 0 0 0 0 0 0 0 0 0 0 0 0 0 0 0 0 0 0 0 0 0 0 0 1 1 1 1 2 2 2 2 1 1 1 1 0 0 0 0 0 0 0 0
0 0 0 0 0 0 0 0 0 0 0 0 0 0 0 0 0 0 0 0 0 0 0 0 1 1 1 1 2 2 2 2 2 1 1 1 1 0 0 0 0 0 0 0
0 0 0 0 0 0 0 0 0 0 0 0 0 0 0 0 0 0 0 0 0 0 0 0 1 1 1 1 2 2 2 2 2 2 2 1 1 0 0 0 0 0 0 0
0 0 0 0 0 0 0 0 0 0 0 0 0 0 0 0 0 0 0 0 0 0 0 0 1 1 1 1 1 2 2 2 2 2 2 1 1 1 0 0 0 0 0 0
0 0 0 0 0 0 0 0 0 0 0 0 0 0 0 0 0 0 0 0 0 0 0 0 1 1 1 1 1 2 2 2 2 2 1 1 1 1 0 0 0 0 0 0
0 0 0 0 0 0 0 0 0 0 0 0 0 0 0 0 0 0 0 0 0 0 0 1 1 1 1 1 1 1 2 2 2 2 1 1 1 1 1 0 0 0 0 0
0 0 0 0 0 0 0 0 0 0 0 0 0 0 0 0 0 0 0 0 0 0 0 1 1 1 1 1 1 1 1 2 2 1 1 1 1 1 1 1 0 0 0 0
0 0 0 0 0 0 0 0 0 0 0 0 0 0 0 0 0 0 0 0 0 0 0 1 1 1 1 1 1 1 1 2 1 1 1 1 1 1 1 1 0 0 0 0
0 0 0 0 0 0 0 0 0 0 0 0 0 0 0 0 0 0 0 0 0 0 0 0 1 1 1 1 1 1 1 1 1 1 1 1 1 1 1 0 0 0 0 0
0 0 0 0 0 0 0 0 0 0 0 0 0 0 0 0 0 0 0 0 0 0 0 0 1 1 1 0 1 1 1 1 1 1 1 1 1 1 0 0 0 0 0 0
0 0 0 0 0 0 0 0 0 0 0 0 0 0 0 0 0 0 0 0 0 0 0 1 1 1 1 0 0 1 1 1 1 1 1 1 1 1 0 0 0 0 0 0
0 0 0 0 0 0 0 0 0 0 0 0 0 0 0 0 0 0 0 0 0 0 0 1 1 1 1 0 0 1 1 1 1 1 1 1 1 1 1 0 0 0 0 0
0 0 0 0 0 0 0 0 0 0 0 0 0 0 0 0 0 0 0 0 0 0 0 0 1 1 1 1 1 1 1 1 1 1 1 1 1 1 0 0 0 0 0 0
0 0 0 0 0 0 0 0 0 0 0 0 0 0 0 0 0 0 0 0 0 0 0 0 1 1 1 1 1 1 1 1 1 1 1 1 1 0 0 0 0 0 0 0
0 0 0 0 0 0 0 0 0 0 0 0 0 0 0 0 0 0 0 0 0 0 0 0 1 1 1 1 1 1 1 1 1 1 1 1 0 0 0 0 0 0 0 0
0 0 0 0 0 0 0 0 0 0 0 0 0 0 0 0 0 0 0 0 0 0 0 0 1 1 1 1 1 1 0 0 1 1 1 1 0 0 0 0 0 0 0 0
0 0 0 0 0 0 0 0 0 0 0 0 0 0 0 0 0 0 0 0 0 0 0 0 1 1 1 1 1 0 0 0 1 1 1 0 0 0 0 0 0 0 0 0
0 0 0 0 0 0 0 0 0 0 0 0 0 0 0 0 0 0 0 0 0 0 0 0 0 1 1 1 1 0 0 0 0 1 1 0 0 0 0 0 0 0 0 0
0 0 0 0 0 0 0 0 0 0 0 0 0 0 0 0 0 0 0 0 0 0 0 0 0 1 1 1 0 0 0 0 0 1 1 0 0 0 0 0 0 0 0 0
0 0 0 0 0 0 0 0 0 0 0 0 0 0 0 0 0 0 0 0 0 0 0 0 0 1 1 0 0 0 0 0 0 1 1 0 0 0 0 0 0 0 0 0
0 0 0 0 0 0 0 0 0 0 0 0 0 0 0 0 0 0 0 0 0 0 0 0 0 0 0 0 0 0 0 0 0 1 1 0 0 0 0 0 0 0 0 0
0 0 0 0 0 0 0 0 0 0 0 0 0 0 0 0 0 0 0 0 0 0 0 0 0 0 0 0 0 0 0 0 1 1 1 0 0 0 0 0 0 0 0 0
0 0 0 0 0 0 0 0 0 0 0 0 0 0 0 0 0 0 0 1 0 0 0 0 0 0 0 0 0 0 0 0 1 1 1 0 0 0 0 0 0 0 0 0
0 0 0 0 0 0 0 0 0 0 0 0 0 0 0 0 0 0 0 1 1 1 0 0 1 0 0 0 0 0 0 0 1 1 1 1 0 0 0 0 0 0 0 0
0 0 0 0 0 0 0 0 0 0 0 0 0 0 0 0 0 0 0 1 1 1 1 1 1 1 1 0 0 0 0 0 1 1 1 1 1 1 0 0 0 0 0 0
Wind_Speed
6 7 7 7 6 4 3 4 4 2 1 4 5 5 4 4 5 6 6 7 7 7 6 6 7 7 8 7 7 7 7 6 5 4 3 2 2 2 2 2 2 2 2 2
7 8 6 5 6 7 7 6 5 3 2 5 5 6 4 4 6 6 6 6 7 7 6 7 7 8 9 8 8 8 8 7 6 4 3 2 2 2 2 2 2 2 2 2
8 3 5 7 8 9 8 7 6 4 3 5 5 5 5 4 5 5 6 6 6 7 7 8 9 9 9 9 9 7 8 8 7 6 3 3 3 2 3 3 2 2 2 2
6 5 6 8 8 8 7 5 6 6 7 4 5 5 3 3 4 4 5 5 6 6 7 7 8 9 10 10 8 8 8 8 7 7 5 5 3 3 2 2 3 3 3 3
5 5 8 9 7 7 4 3 6 7 7 7 6 6 2 3 3 3 3 4 4 5 6 7 8 9 9 9 8 8 9 8 8 6 5 5 3 2 2 2 3 3 3 3
5 4 5 5 5 5 5 5 5 6 7 8 5 7 3 2 2 3 2 2 3 4 5 6 7 7 8 9 8 8 9 8 8 7 6 5 5 4 4 4 3 3 3 3
7 7 5 5 6 7 8 7 5 7 7 5 3 6 4 0 1 2 2 1 1 3 5 6 7 8 9 9 10 10 10 9 9 8 7 6 5 5 5 4 4 3 3 3
7 8 6 5 6 6 8 9 6 4 4 3 4 6 1 1 1 1 1 1 1 2 4 5 7 8 9 10 10 11 11 10 9 8 7 6 6 4 3 4 3 3 2 3
4 4 3 4 5 7 8 8 6 6 5 5 5 4 3 3 2 1 1 1 1 2 4 5 6 7 8 9 10 11 11 10 9 8 7 6 6 6 5 5 4 3 3 3
4 4 4 4 6 4 6 6 6 7 6 6 5 6 3 3 2 1 0 0 1 2 3 4 5 6 7 8 9 10 10 10 9 8 7 5 5 6 5 5 5 4 4 4
5 6 5 6 7 7 8 8 7 6 6 6 5 3 1 3 2 2 1 0 1 2 3 4 4 5 6 7 8 9 9 9 8 7 7 6 6 6 6 5 5 4 4 5
3 5 6 7 4 6 8 8 9 7 6 7 6 2 4 1 1 1 1 0 1 2 3 3 5 5 6 7 8 9 9 9 8 7 7 7 6 6 6 5 5 5 5 5
2 6 6 7 8 7 7 8 8 8 7 7 8 4 4 1 1 1 1 1 1 2 3 4 5 6 6 7 7 8 8 8 7 7 8 7 7 7 7 6 5 5 5 5
5 7 8 7 4 4 7 9 9 10 9 9 10 8 4 3 2 1 1 2 2 3 3 4 5 6 6 7 7 7 7 7 7 8 8 8 7 7 7 6 6 6 6 6
4 7 8 9 8 9 10 11 12 14 12 10 9 10 8 5 3 3 2 3 3 3 3 4 5 5 6 7 7 7 7 8 8 8 8 7 6 6 6 6 6 6 6 6
4 6 7 10 9 10 13 14 14 15 14 13 12 12 8 5 4 4 3 3 4 3 3 4 5 6 7 7 7 7 8 8 8 8 8 7 7 7 7 6 7 7 6 6
5 6 7 9 7 10 14 14 14 13 13 13 13 10 6 6 6 5 4 4 4 3 4 4 4 5 6 7 8 8 8 8 9 9 8 7 7 7 7 7 7 7 7 6
9 8 6 6 7 12 6 4 9 12 13 12 11 9 8 7 6 5 4 4 3 3 4 4 4 5 5 6 7 7 8 9 9 9 8 8 7 7 7 7 7 7 7 6
11 10 7 6 8 10 7 6 9 11 11 10 11 9 7 5 6 6 4 4 3 3 4 4 5 5 5 6 6 7 8 9 9 8 8 8 8 8 8 7 7 6 6 6
9 11 9 7 8 9 5 3 3 8 10 8 9 9 7 6 6 3 2 2 2 2 3 3 4 5 6 6 6 7 8 8 8 8 8 8 8 8 8 8 7 6 6 5
8 9 12 11 10 8 2 1 4 9 4 3 6 6 7 7 4 1 1 2 2 2 2 3 4 5 5 6 7 8 8 8 7 7 7 7 8 8 8 7 6 6 6 6
9 8 10 10 11 8 3 5 7 4 2 2 5 5 6 5 4 3 3 2 3 3 3 3 4 5 5 6 7 8 8 7 7 7 7 7 7 7 7 7 7 7 7 6
8 8 6 8 7 3 3 6 6 6 5 5 4 5 6 6 5 4 4 3 3 3 3 3 4 5 5 6 7 7 6 6 7 8 8 7 7 7 7 8 8 7 7 6
6 6 8 9 9 8 8 8 8 8 7 7 6 6 6 6 6 5 4 3 3 4 4 4 5 5 6 6 6 6 6 7 7 8 7 7 7 7 7 6 6 6 6 6
7 6 8 10 9 8 9 9 8 8 7 6 6 6 7 7 7 6 4 4 4 4 4 4 5 5 6 6 6 5 6 7 8 7 7 7 7 7 7 6 5 6 6 5
8 10 9 8 7 8 8 8 8 8 8 7 6 7 7 7 7 6 5 5 5 5 5 5 5 5 5 6 6 6 6 7 8 7 6 6 6 6 6 6 5 2 1 3
Wind_Direction
187 202 204 203 213 234 221 225 232 233 227 252 257 268 264 232 226 230 227 221 214 216 205 196 195 193 189 186 188 184 180 175 170 172 177 162 148 143 130 121 113 135 149 137
190 207 214 209 201 213 220 231 241 225 222 263 271 270 259 237 233 237 236 227 221 217 203 193 195 194 191 185 191 190 184 179 176 179 170 156 147 148 126 139 141 157 156 154
212 184 193 203 204 212 223 238 244 249 249 234 268 251 228 218 227 234 241 240 231 223 217 201 194 193 190 187 192 190 182 177 175 171 163 157 148 159 160 160 149 155 160 163
217 210 198 203 209 222 224 233 242 241 247 239 252 268 218 217 222 230 237 238 236 227 221 208 197 191 193 189 187 186 178 176 170 170 175 176 169 165 158 164 157 159 164 157
201 201 210 213 215 227 232 224 233 239 247 251 236 260 223 196 226 240 232 234 236 225 215 208 200 194 190 182 180 182 176 172 169 173 172 183 170 164 158 168 163 164 154 153
227 219 229 230 218 218 200 201 204 224 238 240 238 254 251 200 257 270 248 241 227 210 203 201 191 186 181 177 177 177 175 175 172 175 178 183 173 173 169 169 161 162 156 152
208 209 212 220 205 191 210 220 217 210 214 228 208 242 250 105 253 279 294 290 232 200 188 184 179 179 177 178 179 178 177 179 178 181 182 183 186 184 180 169 161 168 164 153
215 202 195 212 228 214 213 226 240 244 236 216 204 238 211 154 250 277 299 319 181 173 177 180 181 180 178 177 179 182 181 182 180 184 182 184 183 188 179 172 166 170 160 153
238 207 173 210 229 228 210 217 248 266 262 247 216 224 213 199 218 234 354 50 132 164 175 181 180 180 179 178 180 184 181 182 181 184 184 187 185 183 179 183 181 174 171 156
266 241 197 188 201 205 236 209 215 231 242 241 231 231 229 191 216 208 270 131 152 169 175 178 177 178 179 178 178 182 182 183 183 184 183 185 187 180 179 183 184 183 173 167
259 238 211 206 214 204 197 207 220 223 240 252 245 211 152 245 244 240 226 178 173 172 179 176 172 170 170 171 174 177 179 178 179 184 182 184 184 179 172 173 175 181 172 173
254 256 234 224 230 249 229 220 223 231 221 240 257 235 107 246 253 234 259 197 131 151 158 162 161 161 163 171 176 179 178 177 180 182 183 189 179 181 177 173 177 185 177 174
242 245 232 209 201 203 216 211 222 239 239 233 239 221 132 188 189 234 260 232 151 147 153 155 157 163 166 172 177 178 182 176 178 183 185 186 180 185 184 178 178 184 175 176
260 242 243 247 254 227 228 225 225 232 236 237 239 250 239 244 264 274 247 218 178 156 158 163 166 168 170 173 177 176 179 174 179 182 186 184 183 187 188 180 177 180 177 180
254 248 250 261 268 257 253 239 228 235 241 248 247 253 260 267 265 252 229 207 193 175 171 174 176 173 175 175 177 175 174 176 179 183 185 183 183 180 181 175 175 180 178 179
246 248 252 250 248 248 253 247 236 237 240 243 251 252 261 264 250 239 227 215 211 196 188 187 186 183 183 181 181 176 173 177 180 183 182 176 181 174 176 176 177 178 176 176
223 234 244 246 247 253 244 236 231 228 229 232 240 246 246 246 236 237 232 232 226 210 203 202 200 194 188 187 187 183 176 175 181 183 178 175 179 174 176 173 175 175 176 172
229 231 238 250 237 238 241 220 232 235 234 234 244 247 240 243 241 237 230 228 222 221 221 215 208 201 194 185 186 182 177 178 180 181 177 175 177 173 172 174 175 177 176 173
229 227 231 237 239 253 247 230 223 228 235 229 232 235 236 236 230 213 211 236 236 230 229 217 208 197 191 182 178 180 179 179 181 181 178 177 176 174 174 176 178 176 175 175
212 220 227 230 237 242 234 181 226 238 237 216 224 227 218 213 232 215 180 222 244 241 234 215 198 192 184 177 176 182 181 180 183 183 181 177 176 174 176 177 176 172 173 174
195 206 218 229 238 249 258 210 213 226 235 180 213 218 211 220 252 276 219 229 234 225 219 203 193 190 186 181 182 184 184 184 181 177 176 174 178 180 176 170 168 168 167 170
215 211 214 221 232 236 166 187 220 261 320 239 228 222 224 233 254 253 243 235 226 217 205 200 196 192 186 188 191 189 188 180 171 170 173 174 175 173 170 167 170 171 165 168
233 232 230 228 242 286 226 238 267 293 278 265 249 236 230 236 246 257 254 238 223 219 208 205 198 192 189 192 197 196 183 174 169 169 172 173 171 171 171 173 172 172 174 179
238 256 245 244 250 262 266 266 270 276 279 278 266 256 241 246 250 249 250 238 227 221 215 211 200 196 193 192 196 198 179 176 174 173 173 173 174 172 173 175 177 178 183 188
246 244 249 252 259 265 263 268 271 277 278 273 266 259 254 250 248 242 243 236 228 221 217 214 209 205 201 194 191 189 179 178 179 177 174 174 176 174 175 176 179 188 191 194
236 238 242 250 262 265 272 277 281 279 274 268 261 259 254 249 248 244 240 236 226 220 218 215 212 210 204 196 191 186 184 183 181 178 176 177 176 175 175 171 162 107 157 156